This is the latest recevied weather packets stored in our database for station/object KC3DGM. If no packets are shown the sender has not sent any weather packets the latest 1 day(s).
| Time | Temp. | Humidity | Pressure | Rain* | Wind** | Luminosity | Snow |
|---|---|---|---|---|---|---|---|
| 1778042844 | 10.56° C | 99% | 980 hPa | 1.27 mm | - | 0 W/m² | - |
| 1778042541 | 10.56° C | 99% | 979.7 hPa | 1.27 mm | - | 0 W/m² | - |
| 1778042238 | 10.56° C | 99% | 979.9 hPa | 0 mm | - | 0 W/m² | - |
| 1778041936 | 10.56° C | 99% | 979.7 hPa | 0 mm | - | 0 W/m² | - |
| 1778041333 | 11.11° C | 99% | 979.7 hPa | 0 mm | - | 0 W/m² | - |
| 1778041031 | 11.11° C | 99% | 979.7 hPa | 1.78 mm | - | 0 W/m² | - |
| 1778040425 | 11.11° C | 99% | 979.5 hPa | 10.16 mm | - | 0 W/m² | - |
| 1778040122 | 10.56° C | 99% | 979.4 hPa | 7.87 mm | - | 0 W/m² | - |
| 1778039212 | 10.56° C | 99% | 979.4 hPa | 1.27 mm | - | 0 W/m² | - |
| 1778038607 | 10.56° C | 99% | 979.3 hPa | 1.78 mm | - | 0 W/m² | - |
| 1778038303 | 10.56° C | 99% | 979.3 hPa | 1.78 mm | - | 0 W/m² | - |
| 1778038001 | 10.56° C | 99% | 979.4 hPa | 1.27 mm | - | 0 W/m² | - |
| 1778037394 | 10.56° C | 99% | 979.7 hPa | 4.83 mm | - | 0 W/m² | - |
| 1778037091 | 10.56° C | 99% | 979.6 hPa | 6.1 mm | - | 0 W/m² | - |
| 1778036790 | 10.56° C | 99% | 979.6 hPa | 3.05 mm | - | 0 W/m² | - |
| 1778036487 | 10.56° C | 99% | 979.6 hPa | 1.78 mm | - | 0 W/m² | - |
| 1778036183 | 10.56° C | 99% | 979.5 hPa | 1.27 mm | - | 0 W/m² | - |
| 1778035577 | 10.56° C | 99% | 979.9 hPa | 4.83 mm | - | 0 W/m² | - |
| 1778035273 | 10.56° C | 99% | 979.9 hPa | 3.56 mm | - | 0 W/m² | - |
| 1778034667 | 10.56° C | 99% | 980 hPa | 1.27 mm | - | 0 W/m² | - |
| 1778034364 | 10.56° C | 98% | 980.1 hPa | 1.78 mm | - | 0 W/m² | - |
| 1778034062 | 10.56° C | 98% | 980 hPa | 1.78 mm | - | 0 W/m² | - |
| 1778033759 | 10.56° C | 98% | 980 hPa | 1.27 mm | - | 0 W/m² | - |
| 1778033456 | 10.56° C | 98% | 980.2 hPa | 1.27 mm | - | 0 W/m² | - |
| 1778033153 | 10.56° C | 98% | 980 hPa | 1.78 mm | - | 0 W/m² | - |
* Rain latest hour (hover to see other rain measurements)
** Current wind speed in m/s (hover to see current wind gust speed)